Aérodrome :
LOGIN :

S'inscrire | Disclaimer

   EN    FR    IT 

 










Légende :    VFR   VFR Marginal   IFR   IFR Intensif   IFR Très Intensif
Visi : 
Plafond : 
>= 8 km
>= 3000ft
5 à 8 km
1000 à 3000 ft
1500m à 5 km
500 à 1000 ft
800 à 1500m
200 à 500 ft
< 800m
< 200 ft
Symboles :   Orages  Brouillard  Fortes neiges  Fortes précipitations  Vent > 20 kt
SIGMETs :   Divers  Orages  Givrage  Turbulence  Onde Orograph.  Cendres Volcan.







- Altitude de l'aérodrome : 147 ft
- Code IATA : DUS


EDDL - Düsseldorf Int.

DERNIER METAR :
  • 191050Z 15010KT CAVOK 19/12 Q1011 NOSIG

METARs EXPIRÉS :
  • 191020Z 16008KT CAVOK 18/12 Q1011 NOSIG
  • 190950Z 15009KT 120V180 CAVOK 17/11 Q1011 NOSIG
  • 190920Z 14010KT CAVOK 16/11 Q1012 NOSIG
  • 190850Z 15010KT 130V190 CAVOK 16/11 Q1012 NOSIG
  • 190820Z 16011KT 130V190 CAVOK 15/10 Q1012 NOSIG

TAF TAF EDDL
Valide du 19 à 06h jusqu'au 20 à 12h UTC


190500Z 1906/2012 15007KT CAVOK
BECMG 1907/1910 15012KT
TEMPO 2005/2007 RA
BECMG 2008/2011 22013KT
TEMPO 2010/2012 22015G25KT
Pas de NOTAMs connus pour ce terrain.



MET'MAP, la Météo Aéronautique d'un coup d'oeil ! - Copyright ORBIFLY Décembre 2007 - Disclaimer

ORBIFLY MET'MAP TEAM :

Programmation & Développement : Alexandra Zaïnal
Conception & Développement : Baudouin d'Aumeries
Co-Programmation & Développement : Marc-Olivier Méhu
Soutien technique & logistique : Manuel Goepfert

Contact : metmap@orbifly.com




SOURCES & CREDITS :

   NOAA